Regional Weather Roundup
Issued by NWS

Home | Current Version | Previous Version | Text Only | Print | Product List | Glossary On
Versions: 1 2 3 4 5 6 7 8 9 10 11 12 13 14 15 16 17 18 19 20 21 22 23 24 25 26 27 28 29 30 31 32 33 34 35 36 37 38 39 40 41 42 43 44 45 46 47 48 49 50
000
ASUS43 KTOP 251408
RWRKS

WEATHER ROUNDUP FOR KANSAS
NATIONAL WEATHER SERVICE GOODLAND KS
900 AM CDT TUE APR 25 2017

NOTE:  "FAIR" INDICATES FEW OR NO CLOUDS BELOW 12,000 FEET WITH NO
SIGNIFICANT WEATHER AND/OR OBSTRUCTIONS TO VISIBILITY.

KSZ001>006-013>018-027>032-041>047-251500-
NORTHWEST KANSAS

CITY           SKY/WX    TMP DP  RH WIND       PRES   REMARKS
GOODLAND       CLOUDY    48  43  82 N17       29.54F
HAYS           CLOUDY    52  44  74 N20       29.46R
HILL CITY      CLOUDY    49  45  86 N16       29.53R
RUSSELL        MOSUNNY   54  46  74 N17       29.42R
$$

KSZ061>065-074>080-084>089-251500-
SOUTHWEST KANSAS

CITY           SKY/WX    TMP DP  RH WIND       PRES   REMARKS
DODGE CITY     SUNNY     54  50  86 NW10      29.43R
ELKHART          N/A     51  39  63 NW18        N/A
GARDEN CITY    CLOUDY    51  46  83 N23G33    29.47R
GREAT BEND     SUNNY     59  51  75 E5        29.39S
PRATT          MOSUNNY   54  48  82 E6        29.38S
$$

KSZ066>073-081>083-090>101-251500-
SOUTHEAST KANSAS

CITY           SKY/WX    TMP DP  RH WIND       PRES   REMARKS
CHANUTE        PTSUNNY   65  50  58 S17G29    29.44F
COFFEYVILLE    MOSUNNY   65  52  62 S16       29.45S
HUTCHINSON     MOSUNNY   61  52  72 SE9       29.36F
MEDICINE LODGE   N/A     59  52  77 E5        29.36R
NEWTON         MOSUNNY   60  52  74 S14       29.38F
PARSONS        MOSUNNY   64  50  60 S9G20     29.46S
WICHITA INTL   PTSUNNY   63  53  70 SE12      29.37S
WICHITA JABRA  PTSUNNY   62  52  69 S16       29.38F
WICHITA MCCONL MOSUNNY   62  51  67 S15       29.38S
WINFIELD       MOSUNNY   63  53  70 SE12      29.39F
$$

KSZ007>012-019>026-033>040-048>060-102>105-251500-
NORTHEAST KANSAS

CITY           SKY/WX    TMP DP  RH WIND       PRES   REMARKS
CONCORDIA      CLOUDY    53  48  83 NE12      29.42F
EMPORIA        CLOUDY    60  50  69 S23G35    29.38F
LAWRENCE       MOSUNNY   64  48  56 SE16      29.44F
MANHATTAN      CLOUDY    63  51  65 E3        29.42R
MARYSVILLE     CLOUDY    55  50  82 N9        29.45S
OLATHE IND     MOSUNNY   62  47  57 S13       29.47S
OLATHE EXE     MOSUNNY   59  48  67 SE12      29.47F
SALINA         CLOUDY    63  51  65 E3        29.40S
TOPEKA BILLARD CLOUDY    64  51  62 SE14      29.43F
TOPEKA FORBES  CLOUDY    65  49  56 S15       29.43S
$$




USA.gov is the U.S. government's official web portal to all federal, state and local government web resources and services.